Location: Unspecified
(0.0000°N, 0.0000°E)
Time: 07:34:12
(UTC+00:00)

S-56A Canister/Altair - Pass Details

Date: 19 April 2019
Orbit: 633 x 2500 km, 38.9° (Epoch: 17 May)

Event Time Altitude Azimuth Distance (km) Brightness Sun altitude
Rises 19:08:14 0° 326° (NW) 3,615 11.7 -16.9°
Reaches altitude 10° 19:11:26 10° 336° (NNW) 2,431 10.6 -17.7°
Maximum altitude 19:16:08 30° 37° (NE) 1,249 8.4 -18.9°
Enters shadow 19:17:00 28° 57° (ENE) 1,274 8.3 -19.1°
